Weather reports worldwide

Advertisment
Trapani/Birgi, Italy (16429): temperature & dewpoint: 18.08.2019 07:00:00 - 24.08.2019 07:00:00 (CEST)Trapani/Birgi, Italy (16429): wind speed: 18.08.2019 07:00:00 - 24.08.2019 07:00:00 (CEST)Trapani/Birgi, Italy (16429): wind direction: 18.08.2019 07:00:00 - 24.08.2019 07:00:00 (CEST)Trapani/Birgi, Italy (16429): reduced air pressure: 18.08.2019 07:00:00 - 24.08.2019 07:00:00 (CEST)Trapani/Birgi, Italy (16429): visibility: 18.08.2019 07:00:00 - 24.08.2019 07:00:00 (CEST)Trapani/Birgi, Italy (16429): sunshine duration: 18.08.2019 07:00:00 - 24.08.2019 07:00:00 (CEST)
Date & Time tt [°C] td [°C] ff [km/h] ff [kn] dd ppp [hPa] vv [km] sd [min]
24.08.2019 07:00:00 22,6 20,5 8 4 ESE 1017,0 20 -
24.08.2019 06:00:00 22,0 19,9 8 4 ESE 1017,0 20 -
24.08.2019 05:00:00 22,2 20,3 5 3 SE 1016,7 20 -
24.08.2019 04:00:00 22,6 20,5 5 3 SE 1016,5 20 -
24.08.2019 03:00:00 23,0 20,7 2 1 ESE 1016,3 20 -
24.08.2019 02:00:00 24,2 21,7 5 3 ESE 1016,5 20 -
24.08.2019 01:00:00 24,2 21,7 5 3 ESE 1016,9 20 -
24.08.2019 00:00:00 25,0 22,5 4 2 ESE 1017,1 20 -
23.08.2019 23:00:00 26,0 23,5 4 2 E 1017,1 20 -
23.08.2019 22:00:00 27,2 25,2 5 3 NNW 1017,1 20 -
23.08.2019 21:00:00 27,6 26,2 5 3 NNW 1017,0 20 -
23.08.2019 20:00:00 28,8 27,0 9 5 N 1017,0 20 18
23.08.2019 19:00:00 30,0 26,8 11 6 NNW 1017,0 16 60
23.08.2019 18:00:00 31,0 26,5 11 6 WNW 1016,8 16 60
23.08.2019 17:00:00 31,4 25,5 15 8 WNW 1017,0 16 48
23.08.2019 16:00:00 31,6 28,6 16 9 W 1017,3 16 60
23.08.2019 15:00:00 32,6 25,7 15 8 W 1017,3 16 60
23.08.2019 14:00:00 32,0 25,8 13 7 W 1017,5 16 60
23.08.2019 13:00:00 31,0 28,8 15 8 W 1017,8 16 60
23.08.2019 12:00:00 31,0 28,0 13 7 WSW 1018,0 16 42
23.08.2019 11:00:00 31,0 26,3 11 6 WSW 1018,0 16 18
23.08.2019 10:00:00 29,2 26,4 13 7 WNW 1018,0 16 12
23.08.2019 09:00:00 27,6 25,0 5 3 N 1017,3 16 0
23.08.2019 08:00:00 24,6 22,1 8 4 SE 1017,2 14 0
23.08.2019 07:00:00 24,2 21,7 8 4 ESE 1017,0 16 -
23.08.2019 06:00:00 24,0 21,1 8 4 SSE 1017,0 16 -
23.08.2019 05:00:00 24,0 21,3 9 5 E 1016,7 14 -
23.08.2019 04:00:00 25,0 22,3 8 4 ESE 1016,5 14 -
23.08.2019 03:00:00 25,0 22,3 5 3 E 1016,6 14 -
23.08.2019 02:00:00 25,0 22,3 2 1 ENE 1017,2 14 -
23.08.2019 01:00:00 25,2 22,3 4 2 W 1017,2 14 -
23.08.2019 00:00:00 26,0 23,3 4 2 SW 1017,6 14 -
22.08.2019 23:00:00 26,8 24,3 4 2 SSW 1017,4 16 -
22.08.2019 22:00:00 28,0 25,6 11 6 NW 1017,5 16 -
22.08.2019 21:00:00 28,0 26,2 9 5 NNW 1017,1 18 -
22.08.2019 20:00:00 28,8 27,0 15 8 N 1016,5 20 -
22.08.2019 19:00:00 29,6 27,8 16 9 N 1017,1 20 60
22.08.2019 18:00:00 31,0 28,8 16 9 NNW 1017,1 20 60
22.08.2019 17:00:00 30,2 25,7 15 8 NNW 1017,1 20 60
22.08.2019 16:00:00 30,0 27,0 16 9 NW 1017,3 20 60
22.08.2019 15:00:00 30,0 27,2 18 10 NNW 1017,8 20 60
22.08.2019 14:00:00 30,6 27,0 15 8 NW 1018,0 20 60
22.08.2019 13:00:00 31,2 26,5 13 7 WNW 1018,0 20 60
22.08.2019 12:00:00 31,0 26,5 15 8 W 1018,0 20 60
22.08.2019 11:00:00 31,0 24,4 15 8 WNW 1017,8 20 60
22.08.2019 10:00:00 29,8 24,2 8 4 N 1017,7 20 60
22.08.2019 09:00:00 27,2 23,2 4 2 E 1017,6 20 60
22.08.2019 08:00:00 23,4 21,3 4 2 SE 1017,3 20 36
22.08.2019 07:00:00 22,4 20,7 5 3 ESE 1017,1 18 -
22.08.2019 06:00:00 23,0 21,3 5 3 SE 1017,1 16 -
22.08.2019 05:00:00 23,0 21,3 5 3 ESE 1017,1 16 -
22.08.2019 04:00:00 23,8 22,1 8 4 SE 1017,1 16 -
22.08.2019 03:00:00 23,6 21,9 4 2 SE 1017,1 16 -
22.08.2019 02:00:00 24,0 22,6 4 2 N 1017,1 16 -
22.08.2019 01:00:00 25,0 23,6 4 2 N 1017,2 16 -
22.08.2019 00:00:00 26,0 24,2 4 2 ENE 1017,2 16 -
21.08.2019 23:00:00 26,2 24,4 2 1 - 1017,1 16 -
21.08.2019 22:00:00 27,0 25,2 9 5 NNE 1017,1 18 -
21.08.2019 21:00:00 28,0 26,2 18 10 N 1017,0 10 -
21.08.2019 20:00:00 28,4 26,4 21 11 N 1016,6 18 12
21.08.2019 19:00:00 29,2 27,2 21 11 NNW 1016,6 22 60
21.08.2019 18:00:00 29,0 27,0 21 11 NNW 1016,9 22 60
21.08.2019 17:00:00 29,4 27,2 22 12 NNW 1017,1 22 60
21.08.2019 16:00:00 29,0 26,6 21 11 NNW 1017,4 22 60
21.08.2019 15:00:00 29,4 26,2 21 11 NW 1017,5 22 60
21.08.2019 14:00:00 29,2 26,0 16 9 NW 1018,1 22 60
21.08.2019 13:00:00 29,4 25,6 15 8 NW 1018,3 22 60
21.08.2019 12:00:00 30,4 22,6 15 8 W 1018,7 22 60
21.08.2019 11:00:00 29,8 24,0 16 9 WNW 1018,9 22 60
21.08.2019 10:00:00 28,2 23,6 5 3 SSE 1018,9 22 60
21.08.2019 09:00:00 26,8 22,9 8 4 SSE 1018,4 20 6
21.08.2019 08:00:00 23,4 20,7 9 5 ESE 1018,5 16 0
21.08.2019 07:00:00 21,2 18,8 8 4 ESE 1017,9 18 0
21.08.2019 06:00:00 21,8 19,5 8 4 ESE 1017,5 15 -
21.08.2019 05:00:00 23,0 21,1 4 2 ESE 1017,2 12 -
21.08.2019 04:00:00 22,8 19,2 5 3 SSE 1017,2 12 -
21.08.2019 03:00:00 23,0 19,4 5 3 ESE 1017,2 12 -
21.08.2019 02:00:00 23,0 19,4 8 4 SE 1017,6 12 -
21.08.2019 01:00:00 23,0 19,4 8 4 S 1017,9 12 -
21.08.2019 00:00:00 25,0 22,3 4 2 SE 1017,9 12 -
20.08.2019 23:00:00 25,0 20,5 4 2 S 1017,4 12 -
20.08.2019 22:00:00 26,0 21,9 2 1 SSW 1017,4 12 -
20.08.2019 21:00:00 26,8 23,1 0 0 N 1017,3 15 -
20.08.2019 20:00:00 27,4 23,7 5 3 W 1017,2 18 18
20.08.2019 19:00:00 29,0 24,8 9 5 WSW 1017,1 18 60
20.08.2019 18:00:00 29,4 26,2 13 7 W 1017,2 18 60
20.08.2019 17:00:00 30,0 26,2 15 8 WSW 1017,3 20 60
20.08.2019 16:00:00 30,0 26,2 16 9 SW 1017,6 20 60
20.08.2019 15:00:00 30,0 26,2 21 11 SW 1017,8 20 60
20.08.2019 14:00:00 30,0 26,2 18 10 SW 1017,9 20 60
20.08.2019 13:00:00 30,0 25,3 21 11 SSW 1017,9 20 60
20.08.2019 12:00:00 29,8 25,8 18 10 SW 1017,9 20 60
20.08.2019 11:00:00 28,6 24,0 13 7 W 1017,3 20 60
20.08.2019 10:00:00 28,0 23,8 11 6 W 1017,1 20 60
20.08.2019 09:00:00 26,0 21,9 8 4 SE 1016,9 20 60
20.08.2019 08:00:00 21,8 19,5 4 2 SE 1016,9 20 18
20.08.2019 07:00:00 21,4 19,5 5 3 SE 1016,8 20 -
20.08.2019 06:00:00 22,0 19,7 8 4 E 1016,9 16 -
20.08.2019 05:00:00 22,2 20,1 8 4 ESE 1017,1 14 -
20.08.2019 04:00:00 23,8 21,9 5 3 ESE 1017,1 14 -
20.08.2019 03:00:00 23,8 21,7 8 4 SE 1017,2 14 -
20.08.2019 02:00:00 24,0 21,9 8 4 ESE 1017,2 14 -
20.08.2019 01:00:00 25,2 23,1 8 4 SE 1017,2 14 -
20.08.2019 00:00:00 25,6 23,7 9 5 SE 1017,2 16 -
19.08.2019 23:00:00 27,0 25,0 13 7 SE 1017,0 16 -
19.08.2019 22:00:00 27,4 25,6 5 3 NNE 1016,7 16 -
19.08.2019 21:00:00 27,8 26,2 11 6 NW 1016,4 18 -
19.08.2019 20:00:00 28,0 26,2 9 5 NW 1016,5 20 12
19.08.2019 19:00:00 29,0 26,4 13 7 W 1016,4 20 60
19.08.2019 18:00:00 30,0 26,8 13 7 W 1016,3 20 60
19.08.2019 17:00:00 30,4 26,6 11 6 W 1016,5 20 60
19.08.2019 16:00:00 31,0 26,9 11 6 W 1016,9 20 60
19.08.2019 15:00:00 30,2 28,4 15 8 WSW 1017,1 20 60
19.08.2019 14:00:00 30,0 27,8 16 9 WSW 1017,1 20 60
19.08.2019 13:00:00 30,0 25,1 15 8 WSW 1017,0 20 60
19.08.2019 12:00:00 30,0 23,4 15 8 W 1016,9 20 60
19.08.2019 11:00:00 29,0 18,5 16 9 WNW 1016,2 20 60
19.08.2019 10:00:00 28,8 19,7 9 5 SE 1016,2 20 60
19.08.2019 09:00:00 27,0 18,6 5 3 ESE 1016,1 20 60
19.08.2019 08:00:00 20,8 17,0 4 2 - 1016,1 20 60
19.08.2019 07:00:00 19,0 17,0 5 3 ESE 1015,9 18 -
19.08.2019 06:00:00 19,6 17,6 4 2 NNE 1015,5 12 -
19.08.2019 05:00:00 20,0 18,3 2 1 ENE 1015,7 12 -
19.08.2019 04:00:00 20,0 18,3 2 1 E 1015,7 12 -
19.08.2019 03:00:00 21,0 18,8 5 3 SE 1016,1 12 -
19.08.2019 02:00:00 21,0 18,4 8 4 SE 1016,1 12 -
19.08.2019 01:00:00 22,8 19,8 11 6 SE 1015,9 12 -
19.08.2019 00:00:00 23,0 19,4 8 4 ESE 1015,9 12 -
18.08.2019 23:00:00 23,0 20,7 5 3 SSE 1015,9 12 -
18.08.2019 22:00:00 24,0 22,3 4 2 ENE 1015,6 12 -
18.08.2019 21:00:00 25,0 23,2 2 1 WSW 1015,3 12 -
18.08.2019 20:00:00 27,0 25,2 5 3 W 1015,3 20 -
18.08.2019 19:00:00 28,0 25,4 15 8 SW 1015,4 25 -
18.08.2019 18:00:00 30,0 21,1 18 10 SW 1015,6 22 60
18.08.2019 17:00:00 30,4 20,6 22 12 WSW 1015,7 22 60
18.08.2019 16:00:00 29,2 26,2 16 9 NW 1016,0 22 60
18.08.2019 15:00:00 30,0 25,3 21 11 NW 1016,1 22 -
18.08.2019 14:00:00 29,2 24,5 22 12 NNW 1016,3 22 60
18.08.2019 13:00:00 29,2 26,2 18 10 NW 1016,4 22 60
18.08.2019 12:00:00 29,8 24,9 15 8 W 1016,4 22 60
18.08.2019 11:00:00 30,0 20,3 8 4 S 1016,4 10 60
18.08.2019 10:00:00 28,4 18,8 8 4 S 1016,5 22 60
18.08.2019 09:00:00 25,8 21,7 4 2 SE 1016,2 22 60
18.08.2019 08:00:00 22,2 19,7 8 4 ESE 1016,1 20 -
18.08.2019 07:00:00 18,2 15,8 5 3 ESE 1016,0 18 0

tt = temperature
td = dewpoint
ff = wind speed
dd = wind direction
ppp = reduced air pressure
vv = visibility
sd = sunshine duration

Next stations